This is the latest recevied weather packets stored in our database for station/object SR5NLK-1. If no packets are shown the sender has not sent any weather packets the latest 10 day(s).
| Time | Temp. | Humidity | Pressure | Rain* | Wind** | Luminosity | Snow |
|---|---|---|---|---|---|---|---|
| 1778248945 | 12.22° C | 72% | 1062.7 hPa | 0 mm | - | - | - |
| 1778248645 | 12.22° C | 71% | 1094.1 hPa | 0 mm | - | - | - |
| 1778248464 | 12.22° C | 71% | 1030.2 hPa | 0 mm | - | - | - |
| 1778248045 | 12.22° C | 70% | 1065.8 hPa | 0 mm | - | - | - |
| 1778247745 | 12.78° C | 70% | 1075.2 hPa | 0 mm | - | - | - |
| 1778247445 | 12.78° C | 70% | 1042.8 hPa | 0 mm | - | - | - |
| 1778247145 | 12.78° C | 69% | 1075.3 hPa | 0 mm | - | - | - |
| 1778246845 | 12.78° C | 69% | 1090.9 hPa | 0 mm | - | - | - |
| 1778246545 | 12.78° C | 69% | 1072.1 hPa | 0 mm | - | - | - |
| 1778246484 | 12.78° C | 69% | 1004.1 hPa | 0 mm | - | - | - |
| 1778246245 | 12.78° C | 69% | 1019.8 hPa | 0 mm | - | - | - |
| 1778245946 | 13.33° C | 68% | 1052.2 hPa | 0 mm | - | - | - |
| 1778245645 | 13.33° C | 68% | 1068.9 hPa | 0 mm | - | - | - |
| 1778245345 | 13.33° C | 67% | 1042.8 hPa | 0 mm | - | - | - |
| 1778245045 | 13.33° C | 67% | 1084.7 hPa | 0 mm | - | - | - |
| 1778244745 | 13.33° C | 66% | 1042.8 hPa | 0 mm | - | - | - |
| 1778244504 | 13.89° C | 67% | 1091.5 hPa | 0 mm | - | - | - |
| 1778244445 | 13.89° C | 67% | 1024 hPa | 0 mm | - | - | - |
| 1778244146 | 13.89° C | 67% | 1046 hPa | 0 mm | - | - | - |
| 1778243845 | 13.89° C | 67% | 991.6 hPa | 0 mm | - | - | - |
| 1778243546 | 13.89° C | 67% | 1087.8 hPa | 0 mm | - | - | - |
| 1778243245 | 13.33° C | 68% | 1084.7 hPa | 0 mm | - | - | - |
| 1778242946 | 13.33° C | 69% | 1036.6 hPa | 0 mm | - | - | - |
| 1778242645 | 13.33° C | 69% | 1052.2 hPa | 0 mm | - | - | - |
| 1778242524 | 12.78° C | 69% | 1049.1 hPa | 0 mm | - | - | - |
* Rain latest hour (hover to see other rain measurements)
** Current wind speed in m/s (hover to see current wind gust speed)